Weather History for Oxford, CT

Change the Weather History Date:

Saturday, November 17, 2012

  Actual Average Record
Temperature  
Mean Temperature 38 °F -  
Max Temperature 48 °F 46 °F 64 °F (2006)
Min Temperature 28 °F 31 °F 21 °F (1996)
Degree Days  
Heating Degree Days 27    
Moisture  
Dew Point 24 °F    
Average Humidity 65    
Maximum Humidity 75    
Minimum Humidity 43    
Precipitation  
Precipitation 0.00 in - - ()
Sea Level Pressure  
Sea Level Pressure 30.56 in    
Wind  
Wind Speed 7 mph (NNE)    
Max Wind Speed 12 mph    
Max Gust Speed 17 mph    
Visibility 10 miles    
Events      
Averages and records for this station are not official NWS values.
T = Trace of Precipitation, MM = Missing Value Source: NWS Daily Summary

Daily Weather History Graph

Daily Weather History Graph

Search for Another Location

Airport:

Trip Planner

Search our weather history database for the weather conditions in past years. The results will help you decide how hot, cold, wet, or windy it might be!

Date:

Astronomy

Nov. 17, 2012 Rise Set
Actual Time 6:44 AM EST 4:30 PM EST
Civil Twilight 6:14 AM EST 5:00 PM EST
Nautical Twilight 5:40 AM EST 5:34 PM EST
Astronomical Twilight 5:07 AM EST 6:07 PM EST
Moon 10:26 AM EST (11/17) 8:37 PM EST (11/17)
Length of Visible Light 10h 46m
Length of Day
9h 46m
Waxing Crescent, 20% of the Moon is Illuminated
Nov 17
Waxing Crescent
Nov 20
First Quarter
Nov 28
Full
Dec 6
Last Quarter
Dec 13
New

Hourly Weather History & Observations

Time (EST) Temp. Windchill Dew Point Humidity Pressure Visibility Wind Dir Wind Speed Gust Speed Precip Events Conditions
12:15 AM 33.8 °F 27.0 °F 21.2 °F 60% 30.44 in 10.0 mi NNE 8.1 mph - N/A   Clear
12:35 AM 33.8 °F 27.0 °F 21.2 °F 60% 30.44 in 10.0 mi NNE 8.1 mph - N/A   Clear
12:55 AM 33.8 °F 27.7 °F 21.2 °F 60% 30.44 in 10.0 mi NNE 6.9 mph - N/A   Clear
1:15 AM 32.0 °F 25.6 °F 21.2 °F 64% 30.45 in 10.0 mi NNE 6.9 mph - N/A   Clear
1:35 AM 30.2 °F 23.4 °F 21.2 °F 69% 30.45 in 10.0 mi North 6.9 mph - N/A   Clear
1:55 AM 30.2 °F 23.4 °F 19.4 °F 64% 30.46 in 10.0 mi North 6.9 mph - N/A   Clear
2:15 AM 30.2 °F 25.4 °F 19.4 °F 64% 30.47 in 10.0 mi NNE 4.6 mph - N/A   Clear
2:35 AM 30.2 °F 25.4 °F 19.4 °F 64% 30.47 in 10.0 mi NNE 4.6 mph - N/A   Clear
2:55 AM 30.2 °F 23.4 °F 21.2 °F 69% 30.48 in 10.0 mi NNE 6.9 mph - N/A   Clear
3:15 AM 30.2 °F 23.4 °F 21.2 °F 69% 30.48 in 10.0 mi North 6.9 mph - N/A   Clear
3:35 AM 28.4 °F 21.2 °F 19.4 °F 69% 30.48 in 10.0 mi North 6.9 mph - N/A   Clear
3:55 AM 28.4 °F 22.2 °F 19.4 °F 69% 30.49 in 10.0 mi North 5.8 mph - N/A   Clear
4:15 AM 28.4 °F 22.2 °F 19.4 °F 69% 30.50 in 10.0 mi North 5.8 mph - N/A   Clear
4:35 AM 28.4 °F 23.3 °F 19.4 °F 69% 30.51 in 10.0 mi North 4.6 mph - N/A   Clear
4:55 AM 28.4 °F 23.3 °F 19.4 °F 69% 30.52 in 10.0 mi North 4.6 mph - N/A   Clear
5:15 AM 30.2 °F 24.3 °F 21.2 °F 69% 30.53 in 10.0 mi North 5.8 mph - N/A   Clear
5:35 AM 28.4 °F 22.2 °F 21.2 °F 74% 30.53 in 10.0 mi NNE 5.8 mph - N/A   Clear
5:50 AM 28.4 °F 22.2 °F 21.2 °F 74% 30.54 in 10.0 mi NNE 5.8 mph - N/A   Clear
6:55 AM 30.2 °F 23.4 °F 21.2 °F 69% 30.56 in 10.0 mi NNE 6.9 mph - N/A   Clear
7:55 AM 33.8 °F 28.6 °F 26.6 °F 75% 30.59 in 10.0 mi NNE 5.8 mph - N/A   Clear
8:50 AM 39.2 °F 33.0 °F 28.4 °F 65% 30.60 in 10.0 mi NE 9.2 mph - N/A   Clear
9:49 AM 41.0 °F 34.3 °F 28.4 °F 61% 30.62 in 10.0 mi NE 11.5 mph 17.3 mph N/A   Clear
10:49 AM 42.8 °F 38.6 °F 28.4 °F 57% 30.62 in 10.0 mi NE 6.9 mph - N/A   Clear
11:45 AM 44.6 °F 42.2 °F 30.2 °F 57% 30.60 in 10.0 mi NNE 4.6 mph - N/A   Clear
12:45 PM 46.4 °F 42.9 °F 32.0 °F 57% 30.58 in 10.0 mi North 6.9 mph - N/A   Clear
1:45 PM 48.2 °F - 30.2 °F 50% 30.57 in 10.0 mi North 4.6 mph - N/A   Clear
2:45 PM 48.2 °F - 26.6 °F 43% 30.58 in 10.0 mi North 8.1 mph - N/A   Clear
3:45 PM 46.4 °F 42.9 °F 28.4 °F 50% 30.59 in 10.0 mi North 6.9 mph - N/A   Clear
4:45 PM 42.8 °F 38.0 °F 28.4 °F 57% 30.59 in 10.0 mi North 8.1 mph - N/A   Clear
5:45 PM 39.2 °F 35.0 °F 26.6 °F 61% 30.62 in 10.0 mi North 5.8 mph - N/A   Clear
6:45 PM 35.6 °F 30.7 °F 24.8 °F 65% 30.62 in 10.0 mi NNE 5.8 mph - N/A   Clear
7:45 PM 35.6 °F 30.7 °F 26.6 °F 70% 30.63 in 10.0 mi NNE 5.8 mph - N/A   Clear
9:15 PM 37.4 °F 33.8 °F 26.6 °F 65% 30.64 in 10.0 mi North 4.6 mph - N/A   Clear
9:35 PM 33.8 °F 27.7 °F 23.0 °F 65% 30.64 in 10.0 mi North 6.9 mph - N/A   Clear
9:55 PM 33.8 °F - 26.6 °F 75% 30.64 in 10.0 mi Calm Calm - N/A   Clear
10:15 PM 33.8 °F 28.6 °F 23.0 °F 65% 30.64 in 10.0 mi North 5.8 mph - N/A   Clear
10:35 PM 33.8 °F 29.6 °F 26.6 °F 75% 30.65 in 10.0 mi ENE 4.6 mph - N/A   Clear
10:55 PM 35.6 °F 29.2 °F 26.6 °F 70% 30.63 in 10.0 mi NNE 8.1 mph - N/A   Clear
11:15 PM 37.4 °F 31.4 °F 26.6 °F 65% 30.63 in 10.0 mi NE 8.1 mph - N/A   Clear
11:35 PM 35.6 °F 32.8 °F 24.8 °F 65% 30.65 in 10.0 mi ENE 3.5 mph - N/A   Clear
11:55 PM 33.8 °F - 24.8 °F 70% 30.65 in 10.0 mi Calm Calm - N/A   Clear